Wind_Speed
25 22 16 16 17 18 20 20 18 17 19 22 20 20 20 18 18 17 16 16 15 14 14 14 14 14 14 14 14 13 12 11 11 12 12 13 13 13 15 15 16 16 16 17
28 25 22 19 18 18 18 19 20 19 21 21 22 22 21 20 19 17 17 17 16 16 15 15 15 15 14 15 14 14 14 13 13 13 13 13 14 14 15 15 15 16 16 17
28 26 25 23 21 19 18 19 20 21 24 24 24 25 22 20 20 19 18 18 18 17 17 17 17 17 16 15 15 15 15 15 15 15 14 14 15 15 16 16 15 16 17 18
26 25 24 22 21 21 21 21 21 23 25 25 26 27 24 22 22 21 20 19 19 18 17 17 17 18 17 17 17 16 17 16 16 15 16 16 17 17 17 17 17 17 19 19
27 25 22 21 22 22 22 24 24 24 26 27 28 26 25 24 23 22 21 20 20 19 19 18 18 19 18 17 18 18 17 18 18 18 18 19 19 19 19 20 20 20 21 21
29 26 22 22 24 23 23 26 28 27 28 28 26 25 25 24 23 22 22 22 21 21 21 20 19 19 19 19 20 20 20 20 20 20 20 21 21 21 22 23 22 22 23 23
30 29 27 27 26 25 26 28 28 28 27 28 27 26 26 25 25 24 24 24 24 24 23 22 22 21 21 21 21 22 21 22 22 22 22 22 23 23 24 24 23 23 23 24
32 31 30 31 29 28 28 28 29 28 27 27 27 27 27 26 26 26 25 25 26 26 25 24 24 24 23 23 23 23 23 23 23 23 24 24 25 25 25 25 26 25 26 26
32 34 35 33 32 30 29 28 27 27 28 28 29 28 27 27 27 27 27 26 26 26 26 26 26 26 25 25 25 25 24 24 25 25 26 27 26 27 27 27 27 27 28 28
32 33 34 33 33 32 31 30 30 30 30 30 30 29 29 29 28 28 28 27 27 27 27 27 27 27 27 26 26 26 26 27 27 28 28 29 28 29 29 29 29 29 29 29
35 34 34 35 35 34 33 32 32 32 32 31 31 31 30 30 29 28 29 29 28 28 28 28 28 27 28 28 28 28 29 29 29 29 29 30 30 30 30 30 30 30 30 31
37 37 36 36 35 34 34 34 34 33 33 32 32 32 31 31 30 30 29 29 29 29 29 29 29 29 29 30 31 31 31 31 31 31 31 32 32 32 32 32 32 32 32 32
38 37 37 37 36 35 35 35 35 34 33 33 33 32 31 31 31 31 31 31 31 31 31 31 31 31 31 31 31 32 32 32 32 32 32 32 32 33 33 32 32 32 32 33
36 37 38 38 38 37 36 36 36 35 34 34 33 33 33 33 33 33 33 33 33 33 32 32 32 32 32 32 32 32 33 33 33 33 33 33 33 33 33 33 32 32 32 32
36 36 37 37 36 37 36 36 36 36 35 35 35 34 34 34 34 34 33 33 34 34 33 33 33 33 33 32 32 32 33 33 33 33 33 34 34 33 33 32 31 31 31 32
35 36 36 36 36 36 37 37 37 37 36 36 35 35 35 34 34 34 34 34 34 34 34 34 34 33 32 32 32 33 33 33 33 33 33 33 33 32 32 32 31 31 30 31
34 35 35 35 36 37 37 36 36 37 36 36 36 35 35 35 35 35 35 34 34 34 34 33 33 33 33 33 33 32 32 33 33 33 33 32 32 32 31 31 30 30 30 30
33 33 34 35 35 36 36 36 36 35 35 34 35 35 35 35 35 34 34 34 34 33 33 33 32 32 32 33 32 32 31 31 32 32 31 31 31 31 30 30 30 29 29 30
32 32 33 34 34 34 34 35 35 35 35 34 35 35 34 34 34 34 34 33 33 32 31 31 31 31 31 32 32 31 31 30 30 30 30 30 30 30 30 30 30 31 30 30
30 31 31 32 32 32 32 33 33 34 34 33 33 33 33 33 32 32 32 32 31 31 30 30 30 30 30 30 30 29 29 29 30 30 30 30 30 29 30 30 30 30 30 30
29 30 30 30 30 30 30 30 31 31 31 31 31 31 31 31 30 30 30 30 30 29 29 29 28 27 26 26 27 27 28 29 29 29 29 28 28 29 29 29 29 29 29 29
27 28 28 28 28 28 27 28 28 28 28 28 28 29 29 29 29 28 28 27 27 26 26 26 26 26 26 26 26 26 26 26 26 27 27 28 28 28 28 28 29 28 28 28
25 25 26 26 26 26 26 25 25 25 25 26 26 27 27 27 26 25 25 24 24 24 24 24 25 25 25 25 25 25 24 24 25 25 25 26 26 26 26 27 27 26 26 26
23 23 23 23 22 22 22 22 22 21 22 22 23 23 23 23 22 22 22 21 21 21 21 21 22 22 23 23 23 23 23 23 23 23 23 24 25 25 25 26 26 26 26 26
21 21 21 21 20 20 20 19 19 19 19 19 19 18 18 18 18 19 19 19 19 19 19 19 19 20 21 21 22 22 22 22 22 22 23 24 24 24 25 25 25 25 26 26
16 17 18 18 18 18 18 18 18 17 17 16 16 16 16 16 17 18 18 17 17 17 17 18 19 19 20 20 20 20 20 21 22 22 23 23 24 25 26 26 26 26 26 26
14 14 14 14 14 14 14 15 15 15 15 15 14 15 15 15 15 14 14 15 15 16 17 17 17 17 18 18 19 19 20 20 21 22 23 24 24 24 25 25 26 26 26 26
Wind_Direction
217 214 223 249 253 242 237 230 234 250 255 262 265 271 277 284 289 292 297 301 305 307 311 314 315 317 318 318 320 319 318 313 311 310 307 304 300 298 297 295 295 293 291 292
221 218 221 231 240 241 238 235 233 238 251 258 266 266 271 278 284 286 290 294 297 298 302 306 308 311 312 313 315 317 317 314 310 310 308 307 304 302 300 300 299 298 295 293
226 224 228 229 232 234 238 240 238 240 245 257 263 267 270 273 276 280 284 287 291 294 297 300 303 305 305 305 309 311 312 310 309 310 311 311 310 307 305 303 300 299 299 296
226 223 229 232 231 235 233 234 235 238 242 250 258 264 269 269 270 275 279 283 285 289 294 296 299 301 301 300 302 303 307 309 309 308 307 309 310 308 306 306 305 302 300 299
223 224 230 232 231 229 230 231 234 239 245 250 258 263 265 266 267 270 276 279 279 284 289 293 295 296 297 296 298 299 302 307 308 307 305 306 306 305 306 305 304 303 301 299
222 219 222 234 236 230 229 237 240 243 248 252 256 260 265 267 269 271 274 276 278 282 285 289 291 291 292 294 293 295 297 299 303 305 303 301 303 304 305 304 302 302 302 300
223 222 223 229 231 229 229 239 244 247 250 253 257 259 263 266 267 270 274 275 277 279 281 284 285 288 289 291 291 292 293 296 299 300 301 301 302 303 304 303 302 301 301 301
225 225 228 232 235 233 235 240 243 247 252 256 258 260 263 265 268 271 273 275 275 276 277 280 281 283 287 290 290 291 291 292 295 297 299 300 300 301 301 301 301 300 300 300
225 225 227 231 238 239 241 244 247 250 255 257 259 261 263 265 267 269 272 274 275 274 274 276 278 281 283 287 289 290 290 291 293 294 297 298 299 299 300 299 298 298 298 299
229 230 230 233 238 242 245 248 251 254 257 258 261 263 263 264 266 268 270 272 274 275 274 275 277 280 282 285 288 289 288 289 291 293 295 296 296 298 298 298 297 297 297 298
230 234 236 237 240 244 248 253 255 257 258 259 261 262 263 264 265 267 268 270 272 272 273 275 277 278 281 284 286 288 289 289 289 291 294 295 296 297 297 297 298 297 297 297
231 235 237 240 244 247 250 252 254 256 257 258 260 262 263 264 265 266 266 269 271 272 273 274 276 277 279 281 284 287 289 290 290 291 293 294 295 296 297 297 297 297 297 297
237 239 242 245 247 249 251 252 254 257 257 258 260 261 263 264 264 265 267 269 271 272 273 274 275 276 278 281 282 284 287 289 290 291 292 293 293 295 296 296 295 295 294 295
240 242 244 246 248 250 252 253 254 256 258 259 259 261 262 263 264 265 267 268 269 271 273 274 275 276 278 280 281 284 286 287 288 289 290 291 292 294 294 294 294 294 294 294
243 243 245 246 248 250 252 253 253 255 257 258 260 260 261 263 264 266 267 268 269 271 273 274 275 277 278 280 282 283 285 286 287 288 290 291 292 292 293 293 293 294 294 295
243 244 245 247 249 250 252 253 254 255 257 259 260 261 262 264 265 267 267 268 270 271 272 274 276 277 278 279 280 282 284 284 285 286 288 290 291 291 292 293 292 293 295 297
244 245 246 247 249 251 252 254 255 256 257 260 261 262 263 264 265 266 267 269 270 271 272 274 276 276 277 278 280 281 283 284 285 286 287 289 290 291 293 295 294 293 294 296
245 245 246 247 249 250 251 253 255 257 258 259 260 262 263 264 265 266 267 268 269 271 272 273 274 275 275 277 279 281 282 283 284 286 287 288 289 289 290 293 293 294 295 297
245 246 247 249 250 250 252 253 255 257 258 259 260 262 263 264 265 266 266 267 268 269 271 272 273 274 276 278 279 279 280 281 284 285 286 287 287 288 290 292 294 295 296 296
245 245 247 249 251 252 252 254 255 256 257 258 259 261 262 263 265 266 266 266 267 269 270 271 273 275 275 276 276 277 278 280 283 284 285 285 287 289 291 292 293 294 295 296
245 247 247 248 249 251 252 254 256 257 257 258 258 260 261 262 264 264 265 266 267 268 269 269 270 272 273 274 276 277 280 282 283 284 286 287 288 291 292 293 294 294 296 297
246 246 247 247 248 249 251 253 254 255 256 257 258 259 260 261 263 263 264 265 265 266 268 269 269 272 274 277 279 280 281 282 283 285 286 288 290 292 293 295 296 297 298 298
244 243 243 244 246 247 249 252 253 254 255 257 258 258 260 261 262 262 263 264 265 266 268 269 271 272 274 278 281 282 283 284 286 287 288 289 291 294 295 297 297 298 298 298
240 239 239 241 243 245 247 250 251 253 256 257 258 260 260 258 258 259 261 263 265 267 268 269 270 273 275 279 283 285 287 288 289 290 291 291 292 293 295 296 297 298 298 298
237 236 238 239 241 243 245 247 249 253 257 256 256 258 258 255 256 259 261 263 266 268 270 271 274 276 278 282 285 286 288 289 290 290 291 292 294 294 295 296 297 298 299 300
229 230 233 236 239 241 243 246 247 249 251 251 251 254 256 256 258 260 261 263 265 267 270 273 277 279 282 284 286 287 287 287 288 289 291 293 295 295 295 296 298 299 299 300
224 227 229 232 235 238 241 242 243 247 251 251 250 254 256 258 259 261 263 265 267 270 273 277 280 282 284 285 287 287 287 288 290 292 294 296 297 298 298 299 300 300 300 302
Height
5881 5884 5888 5890 5891 5893 5896 5898 5901 5901 5899 5896 5895 5896 5896 5895 5895 5895 5894 5893 5892 5891 5890 5889 5888 5887 5886 5884 5883 5882 5881 5880 5879 5878 5877 5876 5875 5875 5874 5873 5872 5872 5871 5871
5875 5879 5883 5886 5888 5889 5892 5894 5896 5896 5894 5892 5891 5890 5891 5892 5892 5892 5891 5891 5890 5889 5888 5887 5886 5885 5884 5883 5881 5880 5879 5878 5877 5876 5875 5874 5873 5872 5871 5870 5869 5868 5867 5867
5870 5874 5877 5880 5884 5886 5888 5889 5890 5890 5889 5888 5888 5887 5888 5889 5889 5889 5889 5888 5887 5886 5886 5885 5883 5882 5882 5881 5879 5878 5877 5876 5874 5873 5872 5871 5870 5869 5867 5866 5865 5864 5864 5863
5864 5869 5871 5876 5878 5880 5882 5884 5884 5884 5884 5884 5883 5884 5883 5885 5886 5885 5885 5885 5884 5882 5882 5882 5881 5880 5878 5877 5876 5875 5874 5873 5872 5870 5869 5868 5867 5865 5864 5863 5862 5861 5860 5859
5859 5863 5866 5870 5872 5874 5876 5876 5877 5877 5878 5879 5878 5879 5879 5880 5880 5881 5881 5881 5880 5880 5879 5879 5878 5877 5875 5874 5873 5872 5871 5870 5869 5867 5866 5865 5863 5862 5861 5859 5858 5857 5855 5854
5852 5857 5861 5863 5864 5866 5869 5869 5870 5871 5872 5873 5874 5874 5874 5875 5875 5876 5876 5876 5875 5875 5875 5875 5874 5873 5872 5871 5870 5869 5868 5867 5865 5864 5862 5861 5860 5858 5857 5855 5854 5852 5850 5849
5846 5849 5853 5854 5855 5858 5862 5862 5863 5865 5866 5867 5868 5869 5870 5870 5870 5871 5872 5872 5871 5871 5871 5870 5869 5869 5868 5867 5866 5865 5864 5862 5861 5859 5858 5857 5855 5854 5852 5851 5849 5847 5845 5844
5839 5843 5847 5846 5848 5850 5852 5854 5856 5859 5860 5861 5862 5863 5864 5865 5866 5866 5866 5866 5866 5866 5866 5865 5864 5864 5863 5862 5861 5860 5859 5858 5856 5855 5853 5852 5850 5849 5847 5845 5844 5842 5840 5838
5832 5835 5837 5840 5842 5844 5846 5848 5850 5852 5854 5856 5856 5856 5858 5859 5860 5860 5860 5860 5860 5860 5860 5859 5859 5858 5857 5857 5856 5855 5853 5852 5851 5849 5848 5846 5845 5843 5841 5840 5838 5836 5834 5832
5824 5826 5829 5832 5835 5838 5840 5843 5845 5847 5848 5849 5850 5851 5852 5853 5854 5854 5854 5854 5854 5854 5854 5853 5853 5852 5851 5851 5850 5848 5847 5846 5845 5843 5842 5840 5839 5837 5835 5833 5831 5829 5827 5825
5817 5819 5822 5825 5828 5831 5834 5836 5838 5840 5841 5842 5844 5844 5845 5846 5846 5847 5847 5847 5847 5847 5847 5847 5846 5846 5845 5844 5843 5842 5841 5839 5838 5836 5835 5833 5832 5830 5828 5826 5824 5822 5820 5818
5809 5812 5814 5817 5821 5824 5827 5829 5830 5832 5834 5835 5836 5837 5838 5838 5839 5839 5839 5840 5840 5840 5840 5840 5839 5839 5838 5837 5836 5835 5834 5832 5831 5829 5828 5826 5824 5822 5820 5819 5816 5814 5812 5810
5801 5805 5808 5810 5813 5816 5819 5821 5822 5824 5826 5827 5828 5829 5830 5831 5831 5832 5832 5832 5832 5832 5832 5832 5832 5831 5830 5830 5829 5827 5826 5825 5823 5822 5820 5819 5817 5815 5813 5811 5809 5806 5804 5802
5794 5797 5800 5803 5805 5808 5810 5812 5814 5816 5817 5818 5820 5821 5822 5822 5823 5823 5824 5824 5824 5824 5824 5824 5823 5823 5822 5821 5821 5820 5818 5817 5815 5814 5812 5811 5809 5807 5805 5803 5801 5798 5796 5794
5786 5789 5792 5793 5796 5798 5801 5803 5805 5806 5808 5809 5811 5812 5813 5814 5814 5815 5815 5815 5816 5816 5816 5815 5815 5814 5814 5813 5812 5811 5810 5809 5807 5806 5804 5802 5800 5798 5796 5794 5792 5790 5788 5786
5777 5780 5783 5785 5787 5789 5791 5793 5795 5797 5799 5800 5801 5803 5804 5805 5805 5806 5806 5807 5807 5807 5807 5806 5806 5805 5805 5804 5803 5803 5801 5800 5799 5797 5796 5794 5792 5790 5788 5786 5784 5782 5780 5778
5769 5772 5774 5777 5779 5780 5782 5784 5786 5788 5790 5791 5792 5793 5794 5795 5796 5796 5797 5797 5798 5798 5797 5797 5797 5796 5796 5796 5795 5794 5793 5792 5790 5789 5787 5785 5784 5782 5780 5778 5776 5774 5772 5770
5761 5763 5765 5768 5769 5771 5773 5775 5777 5778 5780 5782 5783 5783 5784 5785 5786 5787 5788 5788 5789 5789 5789 5788 5788 5788 5787 5787 5786 5785 5784 5783 5782 5781 5779 5778 5776 5774 5772 5770 5768 5766 5764 5761
5752 5755 5757 5759 5761 5762 5764 5766 5768 5769 5771 5772 5773 5774 5775 5776 5777 5778 5778 5779 5779 5780 5780 5780 5779 5779 5779 5778 5778 5777 5776 5775 5774 5772 5771 5769 5768 5766 5764 5762 5760 5758 5756 5753
5744 5746 5749 5750 5752 5754 5756 5757 5759 5761 5762 5763 5765 5766 5766 5767 5768 5769 5769 5770 5770 5771 5771 5771 5771 5771 5770 5770 5769 5769 5768 5767 5766 5764 5763 5761 5760 5758 5756 5754 5752 5750 5748 5745
5737 5739 5741 5743 5745 5747 5748 5749 5751 5752 5753 5755 5756 5757 5758 5759 5760 5760 5761 5762 5762 5763 5763 5763 5763 5763 5763 5762 5761 5761 5760 5759 5758 5756 5755 5754 5752 5751 5749 5747 5744 5742 5740 5737
5730 5732 5734 5736 5738 5739 5741 5742 5743 5745 5746 5747 5748 5749 5750 5751 5752 5753 5753 5754 5755 5755 5755 5756 5756 5756 5755 5755 5754 5753 5752 5751 5750 5749 5748 5746 5745 5743 5741 5739 5737 5734 5732 5729
5723 5725 5727 5730 5731 5733 5734 5736 5737 5738 5739 5740 5741 5742 5743 5744 5745 5746 5746 5747 5748 5748 5748 5749 5749 5749 5749 5748 5747 5746 5745 5744 5743 5742 5740 5739 5737 5735 5733 5731 5729 5727 5724 5722
5717 5719 5722 5724 5726 5727 5729 5730 5731 5732 5733 5734 5735 5735 5736 5737 5738 5739 5740 5741 5741 5742 5742 5742 5742 5742 5742 5741 5741 5740 5739 5737 5736 5735 5733 5732 5730 5728 5726 5724 5722 5720 5717 5715
5712 5714 5717 5719 5720 5722 5724 5725 5726 5728 5728 5729 5729 5730 5731 5732 5733 5734 5735 5735 5736 5736 5736 5736 5736 5736 5736 5735 5734 5733 5732 5731 5730 5728 5727 5725 5723 5721 5719 5717 5715 5712 5710 5707
5708 5710 5712 5714 5716 5718 5719 5721 5722 5723 5724 5724 5725 5726 5727 5728 5728 5729 5730 5730 5730 5731 5731 5731 5731 5730 5730 5729 5728 5727 5726 5725 5724 5722 5720 5719 5717 5715 5712 5710 5708 5705 5703 5700
5705 5707 5709 5711 5713 5714 5715 5717 5718 5719 5720 5721 5722 5723 5723 5724 5724 5725 5725 5725 5726 5726 5726 5725 5725 5724 5724 5723 5722 5721 5720 5719 5718 5716 5714 5712 5710 5708 5706 5703 5701 5698 5696 5693